User: anonymous   Login
Location: Unspecified
(0.0000°N, 0.0000°E)
Time: 22:04:57
(UTC+00:00)
Language:

MOS 1 - Orbit

View from above orbital plane
View from above orbital plane
View from above satellite
View from above satellite

Ground track
Ground track

The orbit data is extracted from the following two-line orbital elements,

1 17527U 87018A   17290.15723635 -.00000212  00000-0 -10737-3 0  9995
2 17527  99.2633 306.4790 0007973 321.8219  88.1047 14.02486966566558
Epoch (UTC): 17 October 2017 03:46:25
Eccentricity: 0.0007973
inclination: 99.2633°
perigee height: 879 km
apogee height: 891 km
right ascension of ascending node: 306.4790°
argument of perigee: 321.8219°
revolutions per day: 14.02486966
mean anomaly at epoch: 88.1047°
orbit number at epoch: 56655

The dashed part of the orbit path shows where the satellite is in the earth's shadow,  

DLR